Weather in Lambasruchey

Russia / Republic of Karelia     62°17′12″N   34°52′36″E
temp.,
°C
wind,
m/s
gust,
m/s
humid.,
%
clouds,
%
prec.,
mm/h
press.,
hPa
HPBL,
m
25 july, sun
sun2500:00+15wsw4956100 0.0 1013325
03:00+13wnw376399 0.0 1013205
06:00+14w246548 0.0 1014111
09:00+20wsw34429 0.0 1014961
12:00+21ssw554398 0.0 10141417
15:00+20s575799 0.0 1014318
18:00+20ssw2458100 0.0 1014112
21:00+19nw385394 0.0 1015266
26 july, mon
mon2600:00+16w116377 0.0 101713
03:00+14w247332 0.0 101785
06:00+15wnw3878100 0.1 1017211
09:00+17wnw258197 0.6 1017232
12:00+23nw374613 0.0 10181728
15:00+22n2551100 0.0 1018667
18:00+21ne245934 0.0 1018200
21:00+19wnw1164100 0.0 101911
27 july, tue
tue2700:00+17ne236691 0.0 102057
03:00+13e24815 0.0 102182
06:00+14e247368 0.0 1021146
09:00+18ese2256100 0.0 1021475
12:00+21s22471 0.0 1020946
15:00+22ssw334916 0.0 1020796
18:00+20s33556 0.0 1018205
21:00+17ssw11701 0.0 101711
28 july, wed
wed2800:00+18sse116486 0.0 101711
03:00+18s366924 0.0 1016145
06:00+17sw37785 0.0 1014218
09:00+22sw35625 0.3 1012509
12:00+24s44545 0.0 1011744
15:00+24ssw575333 0.0 1008374
18:00+24sw255125 0.0 1007408
21:00+19ssw357073 0.0 100568
29 july, thu
thu2900:00+19wsw236112 0.0 100441
03:00+16n116750 0.0 100311
06:00+18nne0068100 0.0 100214
09:00+21ssw2256100 0.0 1001234
12:00+20sw4766100 0.0 1000295
15:00+18ese2495100 2.8 999118
18:00+19s468855 1.9 997326
21:00+18sw498999 2.8 995335